Regional Weather Roundup
Issued by NWS

Home | Current Version | Previous Version | Text Only | Print | Product List | Glossary On
Versions: 1 2 3 4 5 6 7 8 9 10 11 12 13 14 15 16 17 18 19 20 21 22 23 24 25 26 27 28 29 30 31 32 33 34 35 36 37 38 39 40 41 42 43 44 45 46 47 48 49
000
ASUS45 KSLC 040110
RWRUT

UTAH REGIONAL WEATHER ROUNDUP
NATIONAL WEATHER SERVICE SALT LAKE CITY UT
700 PM MDT SUN MAY 03 2015

UTZ001>011-023>025-040200-

NORTHERN UTAH

CITY           SKY/WX    TMP DP  RH WIND       PRES   REMARKS
BRIGHAM CITY   MOSUNNY   71  35  26 CALM      29.86S
HILL AFB       MOSUNNY   72  40  31 N14       29.86S
LOGAN          SUNNY     68  42  38 CALM      29.89S
OGDEN          MOSUNNY   73  41  31 N17G24    29.84S
PROVO AIRPORT  MOSUNNY   72  37  28 NW17      29.83S
SALT LAKE CITY MOSUNNY   77  31  18 NW9       29.81F
VERNAL         PTSUNNY   69  34  27 SE7       29.93S
WENDOVER       CLOUDY    72  34  25 N16       29.85R
HEBER CITY     PTSUNNY   72  30  21 NW8       29.88F
WEST JORDAN    SUNNY     79  43  27 N3        29.84F

$$

UTZ012>022-026-027-040200-

SOUTHERN/CENTRAL UTAH

CITY           SKY/WX    TMP DP  RH WIND       PRES   REMARKS
BLANDING       PTSUNNY   65  35  32 S5        30.04S
BRYCE CANYON   CLOUDY    50  36  58 W22       30.09S
CEDAR CITY     CLOUDY    65  34  31 SE17G26   29.94R
DELTA          PTSUNNY   75  26  16 S18       29.84S
HANKSVILLE     MOSUNNY   73  32  21 CALM      29.90F
MILFORD        CLOUDY    69  35  28 SE10      29.89S
MOAB/CYNLANDS  CLOUDY    71  30  21 SW23G30   29.87F
PRICE          PTSUNNY   64  32  30 NW6       29.96R
ST GEORGE      MOCLDY    77  36  22 SE20G29   29.83R
KANAB          CLOUDY    63  36  36 SW10      30.02R

$$

REGIONAL REPORTS     COLORADO/ARIZONA

CITY           SKY/WX    TMP DP  RH WIND       PRES   REMARKS
CRAIG, CO      PTSUNNY   60  38  43 N14G23    30.00S
GRAND JUNCTION CLOUDY    68  34  28 S15G22    29.90F
RIFLE          CLOUDY    66  38  35 S16       29.96F
MONTROSE       CLOUDY    65  34  31 SW8       30.00R
CORTEZ         SUNNY     65  35  33 E5        29.99S
PAGE, AZ       CLOUDY    73  38  27 S10G20    29.91S
GRAND CANYON   PTSUNNY   53  41  63 VRB5      30.07S
KINGMAN        SUNNY     79  33  19 SW18G25   29.84S
FLAGSTAFF      MOSUNNY   63  29  27 SW16      30.05F

$$

REGIONAL REPORTS    NEVADA/IDAHO/WYOMING

CITY           SKY/WX    TMP DP  RH WIND       PRES   REMARKS
LAS VEGAS, NV  MOSUNNY   88  28  11 SW9       29.67F
ELY            MOSUNNY   69  18  14 S9        29.90S
ELKO           CLOUDY    61  37  41 NW10      29.91S
POCATELLO, ID  MOSUNNY   69  37  30 SE9       29.86F
BURLEY         MOSUNNY   71  37  28 S9        29.82F
EVANSTON, WY   PTSUNNY   58  34  40 SW3       30.00S
ROCK SPRINGS   CLOUDY    56  35  45 NW5       30.04R
KEMMERER       DRIZZLE   45  43  93 N10       30.07R

$$



USA.gov is the U.S. government's official web portal to all federal, state and local government web resources and services.